Location: Berlin
(42.3812°N, 71.6370°W)
Time: 00:11:27
(UTC+00:00)

Cosmos 2016 Rocket - Visible Passes

Search period start: 16 February 2026 00:00
Search period end: 26 February 2026 00:00
Orbit: 946 x 1000 km, 83.0° (Epoch: 15 February)

Date Brightness Start Highest point End Pass type
(mag) Time Alt. Az. Time Alt. Az. Time Alt. Az.
16 Feb 7.2 09:26:05 10° E 09:27:53 11° ENE 09:29:41 10° ENE visible
16 Feb 4.1 11:06:02 10° S 11:12:08 84° E 11:18:17 10° N visible
16 Feb 6.9 23:47:40 10° NW 23:51:40 18° W 23:55:42 10° WSW visible
17 Feb 6.5 09:47:29 10° SE 09:51:56 22° E 09:56:25 10° NE visible
18 Feb 5.5 10:10:37 10° SSE 10:16:10 38° E 10:21:46 10° NNE visible
18 Feb 5.7 22:50:16 10° NNW 22:56:01 39° W 23:01:47 10° SSW visible
19 Feb 4.4 10:34:31 10° S 10:40:33 69° E 10:46:40 10° NNE visible
19 Feb 6.7 23:15:36 10° NW 23:20:15 22° W 23:24:55 10° SW visible
20 Feb 6.7 09:16:39 10° ESE 09:20:29 18° E 09:24:21 10° NE visible
20 Feb 3.9 10:59:02 10° SSW 11:05:06 68° W 11:11:15 10° N visible
20 Feb 7.2 23:42:12 10° WNW 23:44:20 12° WNW 23:46:28 10° W visible
21 Feb 5.8 09:39:24 10° SSE 09:44:39 31° E 09:49:59 10° NNE visible
22 Feb 4.7 10:03:04 10° SSE 10:08:59 56° E 10:15:00 10° NNE visible
23 Feb 6.8 08:46:03 10° ESE 08:49:04 14° E 08:52:06 10° NE visible
23 Feb 3.9 10:27:22 10° S 10:33:28 83° W 10:39:41 10° N visible
23 Feb 7.0 23:09:34 10° NW 23:12:56 15° W 23:16:17 10° WSW visible
24 Feb 6.1 09:08:17 10° SE 09:13:10 26° E 09:18:07 10° NNE visible
24 Feb 4.2 10:52:17 10° SSW 10:58:08 47° WNW 11:04:06 10° N visible
25 Feb 5.0 09:31:40 10° SSE 09:37:26 46° E 09:43:18 10° NNE visible
